Regional Weather Roundup
Issued by NWS

Home | Current Version | Previous Version | Text Only | Print | Product List | Glossary On
Versions: 1 2 3 4 5 6 7 8 9 10 11 12 13 14 15 16 17 18 19 20 21 22 23 24 25 26 27 28 29 30 31 32 33 34 35 36 37 38 39 40 41 42 43 44 45 46 47 48 49 50
000
ASUS44 KEWX 311702
RWRTX
SOUTH TEXAS REGIONAL WEATHER ROUNDUP
NATIONAL WEATHER SERVICE AUSTIN/SAN ANTONIO TX
1100 AM CST SAT JAN 31 2015

NOTE: "FAIR" INDICATED FEW OR NO CLOUDS BELOW 12,000 FEET WITH NO
SIGNIFICANT WEATHER AND/OR OBSTRUCTIONS TO VISIBILITY.

* - THESE STATIONS ARE NOT NWS OR FAA STATIONS...AND ARE NOT SUBJECT
    TO NWS AND FAA QUALITY CONTROL.

TXZ171-172-183>190-311800-
TEXAS HILL COUNTRY AND EDWARDS PLATEAU

CITY           SKY/WX    TMP DP  RH WIND       PRES   REMARKS
JUNCTION       LGT RAIN  50  49  96 E8        30.05F WCI  47
*LLANO         CLOUDY    48  46  93 SE9       30.15F FOG     WCI  44
BURNET         LGT RAIN  47  45  93 SE7       30.13F FOG     WCI  44
*HORSESHOE BAY DRIZZLE   48  48 100 SE8       30.11F WCI  45
*KERRVILLE     RAIN      50  49  96 E8        30.09F WCI  47
*FREDERICKSBRG RAIN      49  48  97 SE9       30.10S WCI  45
*ROCKSPRINGS   LGT RAIN  52  52 100 S20G28    30.06S
*BOERNE STAGE  CLOUDY    50  46  87 SE7       30.12F VSB 1/2 WCI  47
*CASTROVILLE   FOG       53  53 100 E8        30.12F VSB 1/2
HONDO          LGT RAIN  53  53 100 E10       30.10F VSB 1/4
*UVALDE        RAIN      52  52  99 E10       30.08S
DEL RIO        LGT RAIN  50  49  96 SE7       30.04F FOG     WCI  47
LAUGHLIN AFB   LGT RAIN  50  50  99 S6        30.04F FOG     WCI  48
CARRIZO SPRGS  DRIZZLE   55  55 100 SE8G18    30.03F
$$

TXZ173-191>194-202-209-217>225-228-311800-
CENTRAL AND SOUTH CENTRAL TEXAS

CITY           SKY/WX    TMP DP  RH WIND       PRES   REMARKS
GEORGETOWN     CLOUDY    48  43  81 E3        30.14F
AUSTIN/BERGSTM LGT RAIN  51  47  86 E6        30.13F FOG
AUSTIN/MABRY   LGT RAIN  49  46  90 E7        30.15F FOG     WCI  46
*AUSTIN/EXEC   CLOUDY    50  43  76 E7        30.15F WCI  47
*LAGO VISTA    DRIZZLE   48  46  92 E7        30.13F WCI  44
SAN MARCOS     DRIZZLE   50  46  87 E6        30.13F FOG     WCI  48
NEW BRAUNFELS  LGT RAIN  51  49  92 CALM      30.12F VSB 1
RANDOLPH AFB   CLOUDY    52  52 100 VRB3      30.12F FOG
PT SAN ANTONIO CLOUDY    54  54  99 E8        30.08F FOG
SAN ANTONIO    DRZL/FOG  53  52  96 E8        30.11F VSB 1
STINSON FIELD  CLOUDY    55  53  93 E9        30.09F FOG
*PLEASANTON    CLOUDY    56  55  94 E7        30.11F FOG
*LA GRANGE     CLOUDY    56  49  77 SE9       30.14F
*GIDDINGS      CLOUDY    55  46  71 SE10      30.19F
*GONZALES      NOT AVBL
$$

TXZ163>164-176>182-195>201-210>213-226-227-235-311800-
SOUTHEAST TEXAS

CITY           SKY/WX    TMP DP  RH WIND       PRES   REMARKS
COLLEGE STN    CLOUDY    53  42  66 E9        30.19F
*BRYAN         CLOUDY    49  40  70 E7        30.20F WCI  47
*CALDWELL      CLOUDY    54  43  66 E13       30.21S
*CROCKETT      CLOUDY    54  39  58 SE9       30.26R
*BRENHAM       CLOUDY    56  46  69 E9        30.19F
HUNTSVILLE     CLOUDY    51  40  65 E6        30.20F
CONROE         CLOUDY    51  40  65 SE8       30.21F
HOUSTON BUSH   CLOUDY    56  45  66 E10       30.20F
HOUSTON HOBBY  CLOUDY    57  49  74 E12G20    30.19F
*HOUSTON SW AP CLOUDY    57  50  79 E10       30.19F
PEARLAND       CLOUDY    59  50  72 E17G23    30.20F
HOUSTON HOOKS  CLOUDY    55  44  66 E9        30.19F
ELLINGTON FLD  PTSUNNY   57  48  72 E10       30.22S
SUGAR LAND     CLOUDY    59  49  69 E15       30.18F
*HOUSTON EXEC  CLOUDY    59  46  63 SE14      30.19F
*CLEVELAND MUN CLOUDY    52  43  71 CALM      30.23S
*WHARTON       PTSUNNY   62  54  76 E9        30.17S
*COLUMBUS      PTSUNNY   57  49  75 E9G17     30.17S
$$

TXZ214>216-236>238-311800-
THE UPPER TEXAS COAST

CITY           SKY/WX    TMP DP  RH WIND       PRES   REMARKS
*ORANGE        CLOUDY    52  43  70 E10       30.26F
PORT ARTHUR    CLOUDY    56  44  64 E17       30.21F
GALVESTON      CLOUDY    61  54  77 E15       30.19F
ANGLETON       CLOUDY    62  55  77 E10G20    30.17F
*BAY CITY      CLOUDY    66  59  78 E14       30.16S
PALACIOS       PTSUNNY   69  60  73 E21G26    30.14F
$$

TXZ229>234-239>247-311800-
TEXAS COASTAL BEND AND RIO GRANDE PLAINS

CITY           SKY/WX    TMP DP  RH WIND       PRES   REMARKS
VICTORIA       PTSUNNY   68  60  75 SE20      30.13F
*BEEVILLE      CLOUDY    65  64  96 SE10      30.10F
ROCKPORT       PTSUNNY   69  61  75 SE13      30.12S
*PORT ARANSAS  PTSUNNY   67  62  83 SE8       30.11S
*PORT LAVACA   PTSUNNY   66  60  81 SE16G22   30.13F
*INGLESIDE     PTSUNNY   68  61  76 SE17G26   30.11S
CORPUS CHRISTI PTSUNNY   70  64  81 SE20      30.10F
CORPUS NAS     PTSUNNY   70  65  84 SE13      30.10F
*ROBSTOWN      PTSUNNY   71  64  80 SE17      30.10F
ALICE          CLOUDY    71  61  70 SE17G25   30.08F
KINGSVILLE NAS PTSUNNY   72  64  76 SE20G26   30.09F
COTULLA        NOT AVBL
*FAITH RANCH   CLOUDY    57  57 100 SE13G21   30.03F
LAREDO         CLOUDY    67  60  78 SE16      30.06F
$$

TXZ248>255-311800-
DEEP SOUTH TEXAS

CITY           SKY/WX    TMP DP  RH WIND       PRES   REMARKS
BROWNSVILLE    PTSUNNY   74  63  68 SE17      30.09F
PORT ISABEL    PTSUNNY   71  62  73 SE15      30.09S
*SOUTH PADRE   PTSUNNY   66  63  88 SW9       30.10F
HARLINGEN      PTSUNNY   69  63  81 SE25      30.07F
*HEBBRONVILLE  CLOUDY    64  62  93 SE12      30.08F
MCALLEN        CLOUDY    72  61  68 SE18G29   30.07F
*WESLACO       PTSUNNY   72  62  70 S21G26    30.07F
FALFURRIAS     CLOUDY    71  60  67 SE18G24   30.08S
EDINBURG       PTSUNNY   73  62  68 SE13G22   30.08S
*ZAPATA        CLOUDY    67  60  77 SE12G20   30.06S
$$

TXZ213>215-236>238-242>244-246-247-251-254-255-311800-
CMAN STATIONS

STATION/POSITION TIME  TEMP    WIND        PRES    WAVE
                       AIR SEA DIR/SP/G            HT/PER
                 (UTC) (F)     (DEG/KT/KT) (MB)    (FT/S)
SABINE PASS      1600   53 55   90/ 11/ 17 1023.8
SEA RIM ST PARK  1600   54      80/ 11/ 15 1024.4
NORTH JETTY/GLS  1600   57 58  120/ 17/ 21   N/A
EAGLE POINT      1600   54 56  100/ 11/ 14 1022.9
MORGANS POINT    1600   53      90/ 11/ 14 1022.8
MISSION/ARANSAS  1600   64     VRB  9      1021.0
PORT O`CONNOR    1600          100/ 13/ 15   N/A
PORT ARANSAS     1600   63 60  100/  9/ 10 1020.2
MALAQUITE BEACH  1600   63 62  130/  7/  7 1019.1
BAFFIN BAY       1600   67     130/ 11/ 16 1019.3
PORT ISABEL      1600   69 62  160/ 12/ 16 1019.3
$$

GMZ080-GMZ150>470-311800-
OFFSHORE BUOY REPORTS

STATION/POSITION TIME  TEMP    WIND        PRES    WAVE
                       AIR SEA DIR/SP/G            HT/PER
                 (UTC) (F)     (DEG/KT/KT) (MB)    (FT/S)
20 E GALVESTON   1700   58 57   80/ 14/ 16 1022.0    3/ 6
90 E PT ARANSAS  1700   68 68  110/ 17/ 19 1020.7    4/ 5
35 NE PT MANSFLD 1700   69 69  150/ 16/ 19 1019.0    5/ 6
200 E PT ISABEL  1700   69 72  110/ 19/ 23 1020.6    4/ 5
$$



USA.gov is the U.S. government's official web portal to all federal, state and local government web resources and services.